SPACEBEE-30 (46946 NORAD) Tracking and Keplerian Element Data

This shows tracking and keplerian element data for the satellite.

Feedback or suggestion? Click here.




ElementValue
Catalog46946
NameSPACEBEE-30
Epoch Orbit896
Epoch Day18.08571883
Epoch Year2021
RAAN157.4387
Inclination97.3736
Eccentricity0.0016415
Argument of Perigee103.3594
Mean Anonmoly256.9452
Mean Motion15.20961404
Decay Rate3.527E-05
L11 46946U 20085T 21018.08571883 .00003527 00000-0 16179-3 0 9990
L22 46946 97.3736 157.4387 0016415 103.3594 256.9452 15.20961404 8961

Live tracking and technical data element details for SPACEBEE-30 (NORAD 46946). SPACEBEE-30 can be tracked NOW for your location showing map with azimuth and elevation plus other details from your city location.

Track the satellite on the map from your city or location and see movement details for azimuth, elevation, latitude, longitude, range, height, and movement on the map or in text.







IsCatalogInMostPopularTable: catalog: 46946, numindb: 15
Update: records affected: 1



GetName: 46946 SPACEBEE-30

Hit Count: updated at: Mon, 18 Jan 2021 15:54:30 GMT